KC7NGC-B Weather Reports


time (UTC)temp
F
wind
direction
speed
knots
gust
knots
rain 1hr
in
rain 24hr
in
rain mn
in
humidity
%
barometer
mb
20260902235621 64 205 7.8 11.3 0.00 0.00 0.00 1 1009.1
20260902234617 65 210 7.0 12.2 0.00 0.00 0.00 1 1008.9
20260902233654 67 215 7.8 13.9 0.00 0.00 0.00 1 1008.7
20260902232629 67 214 9.6 17.4 0.00 0.00 0.00 1 1008.9
20260902231646 67 210 10.4 13.9 0.00 0.00 0.00 1 1009.2
20260902230621 66 224 5.2 9.6 0.00 0.00 0.00 1 1009.3
20260902225618 64 204 5.2 7.8 0.00 0.00 0.00 1 1009.2
20260902224634 63 205 5.2 8.7 0.00 0.00 0.00 1 1009.3
20260902223650 64 211 7.8 10.4 0.00 0.00 0.00 1 1009.2
20260902222626 66 237 7.8 18.2 0.00 0.00 0.00 1 1009.2
20260902221623 71 216 5.2 8.7 0.00 0.00 0.00 1 1008.7
20260902220638 74 186 7.8 10.4 0.00 0.00 0.00 1 1008.0
20260902215634 73 189 3.5 5.2 0.00 0.00 0.00 1 1008.0
20260902214631 72 183 3.5 4.3 0.00 0.00 0.00 1 1008.0
20260902213627 72 180 6.1 9.6 0.00 0.00 0.00 1 1008.1
20260902212703 73 177 5.2 7.0 0.00 0.00 0.00 1 1008.1
20260902211639 74 179 4.3 5.2 0.00 0.00 0.00 1 1008.2
20260902210635 74 172 3.5 5.2 0.00 0.00 0.00 1 1008.2
20260902205632 74 216 4.3 6.1 0.00 0.00 0.00 1 1008.1
20260902204628 73 219 3.5 5.2 0.00 0.00 0.00 1 1008.2
20260902203625 73 177 1.7 3.5 0.00 0.00 0.00 1 1008.3
20260902202621 73 201 4.3 6.1 0.00 0.00 0.00 1 1008.5
20260902201617 73 215 1.7 4.3 0.00 0.00 0.00 1 1008.6
20260902200634 73 176 4.3 7.0 0.00 0.00 0.00 1 1008.7
20260902195629 72 253 3.5 5.2 0.00 0.00 0.00 1 1008.9
20260902194707 72 266 4.3 5.2 0.00 0.00 0.00 1 1009.0
20260902193622 72 205 5.2 9.6 0.00 0.00 0.00 1 1009.1
20260902192639 72 219 5.2 7.0 0.00 0.00 0.00 1 1009.2
20260902191635 72 183 2.6 6.1 0.00 0.00 0.00 1 1009.4
20260902190631 71 211 5.2 9.6 0.00 0.00 0.00 1 1009.3
20260902185630 71 207 2.6 3.5 0.00 0.00 0.00 1 1009.7
20260902184624 70 213 3.5 6.1 0.00 0.00 0.00 1 1009.5
20260902183619 70 182 6.1 9.6 0.00 0.00 0.00 1 1009.9
20260902182616 70 209 7.0 12.2 0.00 0.00 0.00 1 1009.9
20260902181632 70 182 7.0 8.7 0.00 0.00 0.00 1 1009.8
20260902180629 70 211 2.6 5.2 0.00 0.00 0.00 1 1009.9
20260902175645 70 185 3.5 7.0 0.00 0.00 0.00 1 1009.9
20260902174641 69 207 5.2 7.8 0.00 0.00 0.00 1 1010.1
20260902173618 68 182 5.2 7.0 0.00 0.00 0.00 1 1009.9
20260902172634 67 200 3.5 5.2 0.00 0.00 0.00 1 1010.1
20260902171630 66 194 5.2 8.7 0.00 0.00 0.00 1 1010.1
20260902170626 66 208 4.3 5.2 0.00 0.00 0.00 1 1010.0
20260902165623 67 192 7.0 8.7 0.00 0.00 0.00 1 1010.2
20260902164619 67 201 5.2 9.6 0.00 0.00 0.00 1 1010.1
20260902163620 66 175 6.1 10.4 0.00 0.00 0.00 1 1010.1
20260902162632 65 197 4.3 6.1 0.00 0.00 0.00 1 1009.9
20260902161628 64 192 6.1 9.6 0.00 0.00 0.00 1 1010.1
20260902160625 64 196 3.5 6.1 0.00 0.00 0.00 1 1010.2
20260902155621 63 191 6.1 10.4 0.00 0.00 0.00 1 1010.2
20260902154617 61 196 6.1 7.8 0.00 0.00 0.00 1 1010.3
20260902153654 60 208 3.5 5.2 0.00 0.00 0.00 1 1010.4
20260902152630 59 207 3.5 4.3 0.00 0.00 0.00 1 1010.3
20260902151626 59 200 5.2 7.8 0.00 0.00 0.00 1 1010.5
20260902150622 59 198 4.3 7.0 0.00 0.00 0.00 1 1010.4
20260902145619 59 212 3.5 5.2 0.00 0.00 0.00 1 1010.4
20260902144635 57 215 6.1 9.6 0.00 0.00 0.00 1 1010.4
20260902143651 57 245 2.6 6.1 0.00 0.00 0.00 1 1010.7
20260902142627 57 305 4.3 6.1 0.00 0.00 0.00 1 1010.6
20260902141623 58 282 2.6 6.1 0.00 0.00 0.00 1 1010.2
20260902140620 58 260 3.5 5.2 0.00 0.00 0.00 1 1010.3
20260902135617 58 300 0.9 3.5 0.00 0.00 0.00 1 1010.1
20260902134633 58 322 0.9 2.6 0.00 0.00 0.00 1 1010.1
20260902133710 58 202 7.0 10.4 0.00 0.00 0.00 1 1009.8
20260902132626 58 213 7.0 11.3 0.00 0.00 0.00 1 1009.6
20260902131622 58 205 6.1 11.3 0.00 0.00 0.00 1 1009.4
20260902130618 58 212 6.1 9.6 0.00 0.00 0.00 1 1009.3
20260902125654 58 215 7.8 11.3 0.00 0.00 0.00 1 1009.7
20260902124650 59 208 6.1 10.4 0.00 0.00 0.00 1 1009.6
20260902123627 59 215 5.2 8.7 0.00 0.00 0.00 1 1009.8
20260902122625 59 204 5.2 9.6 0.00 0.00 0.00 1 1009.6
20260902121638 59 205 7.0 10.4 0.00 0.00 0.00 1 1009.8
20260902120655 59 211 8.7 11.3 0.00 0.00 0.00 1 1009.9
20260902115652 59 216 9.6 15.6 0.00 0.00 0.00 1 1009.8
20260902114628 59 217 7.8 10.4 0.00 0.00 0.00 1 1009.7
20260902113624 59 209 7.0 12.2 0.00 0.00 0.00 1 1009.8
20260902112628 59 195 6.1 12.2 0.00 0.00 0.00 1 1009.9
20260902111617 59 199 6.1 10.4 0.00 0.00 0.00 1 1009.8
20260902110634 59 213 7.0 10.4 0.00 0.00 0.00 1 1009.8
20260902105621 59 201 5.2 9.6 0.00 0.00 0.00 1 1009.5
20260902104632 59 188 7.0 10.4 0.00 0.00 0.00 1 1009.2
20260902103628 59 221 9.6 11.3 0.00 0.00 0.00 1 1009.5
20260902102624 60 201 5.2 7.8 0.00 0.00 0.00 1 1009.2
20260902101621 60 211 5.2 7.0 0.00 0.00 0.00 1 1009.0
20260902100617 60 205 6.1 11.3 0.00 0.00 0.00 1 1009.1
20260902095634 60 216 6.1 8.7 0.00 0.00 0.00 1 1009.3
20260902094631 61 203 5.2 7.0 0.00 0.00 0.00 1 1009.4
20260902093626 61 205 7.0 10.4 0.00 0.00 0.00 1 1009.0
20260902092622 62 231 5.2 7.8 0.00 0.00 0.00 1 1009.2
20260902091618 62 216 3.5 5.2 0.00 0.00 0.00 1 1009.1
20260902090655 62 212 7.8 11.3 0.00 0.00 0.00 1 1009.4
20260902085651 62 230 7.0 8.7 0.00 0.00 0.00 1 1009.1
20260902084631 62 211 8.7 11.3 0.00 0.00 0.00 1 1009.2
20260902083623 62 210 6.1 9.6 0.00 0.00 0.00 1 1009.2
20260902082619 62 215 7.0 8.7 0.00 0.00 0.00 1 1009.3
20260902081620 63 209 7.0 8.7 0.00 0.00 0.00 1 1009.0
20260902080632 64 214 7.0 9.6 0.00 0.00 0.00 1 1008.9
20260902075629 64 219 5.2 7.8 0.00 0.00 0.00 1 1009.1
20260902074625 64 223 3.5 7.0 0.00 0.00 0.00 1 1008.8
20260902073621 65 211 6.1 9.6 0.00 0.00 0.00 1 1008.7
20260902072617 65 236 4.3 7.0 0.00 0.00 0.00 1 1008.8
20260902071654 65 238 2.6 5.2 0.00 0.00 0.00 1 1008.7
20260902070630 65 230 2.6 4.3 0.00 0.00 0.00 1 1008.7
20260902065627 65 204 5.2 8.7 0.00 0.00 0.00 1 1008.9
20260902064642 65 226 7.0 11.3 0.00 0.00 0.00 1 1008.6
20260902063618 66 211 5.2 7.0 0.00 0.00 0.00 1 1008.5
20260902062635 66 205 6.1 9.6 0.00 0.00 0.00 1 1008.4
20260902060627 67 219 5.2 8.7 0.00 0.00 0.00 1 1007.8
20260902055626 67 214 7.0 11.3 0.00 0.00 0.00 1 1007.9
20260902054620 67 216 7.0 10.4 0.00 0.00 0.00 1 1007.8
20260902053616 67 217 11.3 14.8 0.00 0.00 0.00 1 1007.7
20260902052633 68 215 5.2 8.7 0.00 0.00 0.00 1 1007.8
20260902051629 68 213 7.8 11.3 0.00 0.00 0.00 1 1007.6
20260902050645 68 201 7.0 9.6 0.00 0.00 0.00 1 1007.5
20260902045621 69 217 5.2 7.8 0.00 0.00 0.00 1 1007.5
20260902044617 69 207 5.2 7.8 0.00 0.00 0.00 1 1007.4
20260902043633 69 224 2.6 7.0 0.00 0.00 0.00 1 1007.4
20260902042630 70 213 6.1 8.7 0.00 0.00 0.00 1 1007.0
20260902041626 71 201 7.0 9.6 0.00 0.00 0.00 1 1007.1
20260902040622 71 205 5.2 8.7 0.00 0.00 0.00 1 1007.1
20260902035618 71 215 6.1 9.6 0.00 0.00 0.00 1 1006.9
20260902034634 71 193 6.1 7.8 0.00 0.00 0.00 1 1006.6
20260902033652 72 192 4.3 7.8 0.00 0.00 0.00 1 1006.6
20260902032628 73 183 5.2 7.0 0.00 0.00 0.00 1 1006.3
20260902031623 73 208 5.2 7.8 0.00 0.00 0.00 1 1006.2
20260902030619 74 191 3.5 7.0 0.00 0.00 0.00 1 1006.1
20260902025636 75 181 3.5 5.2 0.00 0.00 0.00 1 1006.1
20260902024712 76 196 2.6 5.2 0.00 0.00 0.00 1 1005.9
20260902023647 77 203 6.1 8.7 0.00 0.00 0.00 1 1005.7
20260902022624 78 190 1.7 2.6 0.00 0.00 0.00 1 1005.9
20260902021621 79 183 1.7 3.5 0.00 0.00 0.00 1 1005.8
20260902020621 80 160 4.3 7.8 0.00 0.00 0.00 1 1005.8
20260902015633 80 98 1.7 4.3 0.00 0.00 0.00 1 1005.9
20260902014629 80 169 1.7 3.5 0.00 0.00 0.00 1 1005.8
20260902013625 80 148 0.9 1.7 0.00 0.00 0.00 1 1005.9
20260902012622 81 174 2.6 3.5 0.00 0.00 0.00 1 1005.9
20260902011617 82 165 2.6 3.5 0.00 0.00 0.00 1 1005.8
20260902010654 82 167 3.5 4.3 0.00 0.00 0.00 1 1006.0
20260902005629 82 154 2.6 5.2 0.00 0.00 0.00 1 1006.0
20260902004626 82 188 3.5 5.2 0.00 0.00 0.00 1 1006.0
20260902003622 82 180 2.6 3.5 0.00 0.00 0.00 1 1006.2
20260902002619 82 189 2.6 3.5 0.00 0.00 0.00 1 1006.2
20260902001635 82 180 3.5 4.3 0.00 0.00 0.00 1 1006.2
20260902000651 83 185 2.6 4.3 0.00 0.00 0.00 1 1006.3